TimeGMT,TemperatureF,Dew PointF,Humidity,Sea Level PressureIn,VisibilityMPH,Wind Direction,Wind SpeedMPH,Gust SpeedMPH,PrecipitationIn,Events,Conditions,WindDirDegrees,DateUTC
12:20 AM,48.2,44.6,87,30.09,6.2,WSW,6.9,-,N/A,,Partly Cloudy,240,2012-11-08 00:20:00
12:50 AM,48.2,44.6,87,30.06,6.2,SW,5.8,-,N/A,,Scattered Clouds,220,2012-11-08 00:50:00
1:20 AM,48.2,44.6,87,30.06,6.2,SSW,5.8,-,N/A,,Scattered Clouds,210,2012-11-08 01:20:00
1:50 AM,46.4,44.6,93,30.06,6.2,Variable,3.5,-,N/A,,Partly Cloudy,0,2012-11-08 01:50:00
2:20 AM,46.4,44.6,93,30.06,6.2,SW,5.8,-,N/A,,Mostly Cloudy,230,2012-11-08 02:20:00
2:50 AM,46.4,44.6,93,30.06,6.2,SW,6.9,-,N/A,,Partly Cloudy,220,2012-11-08 02:50:00
3:20 AM,46.4,44.6,93,30.06,6.2,SW,4.6,-,N/A,,Scattered Clouds,220,2012-11-08 03:20:00
3:50 AM,46.4,44.6,93,30.06,6.2,SW,5.8,-,N/A,,Scattered Clouds,220,2012-11-08 03:50:00
4:20 AM,46.4,44.6,93,30.04,6.2,SW,4.6,-,N/A,,Scattered Clouds,220,2012-11-08 04:20:00
4:50 AM,48.2,44.6,87,30.04,6.2,SW,6.9,-,N/A,,Scattered Clouds,230,2012-11-08 04:50:00
5:20 AM,48.2,44.6,87,30.04,6.2,SW,6.9,-,N/A,,Mostly Cloudy,230,2012-11-08 05:20:00
5:50 AM,46.4,42.8,87,30.04,6.2,WSW,4.6,-,N/A,,Scattered Clouds,240,2012-11-08 05:50:00
6:20 AM,48.2,42.8,82,30.04,6.2,Variable,3.5,-,N/A,,Mostly Cloudy,0,2012-11-08 06:20:00
6:50 AM,48.2,42.8,82,30.04,6.2,WSW,4.6,-,N/A,,Mostly Cloudy,250,2012-11-08 06:50:00
7:20 AM,48.2,42.8,82,30.06,6.2,WSW,5.8,-,N/A,,Scattered Clouds,240,2012-11-08 07:20:00
7:50 AM,48.2,42.8,82,30.06,6.2,WSW,5.8,-,N/A,,Scattered Clouds,240,2012-11-08 07:50:00
8:20 AM,48.2,44.6,87,30.06,6.2,WSW,4.6,-,N/A,,Scattered Clouds,240,2012-11-08 08:20:00
8:50 AM,48.2,44.6,87,30.06,6.2,WSW,5.8,-,N/A,,Scattered Clouds,250,2012-11-08 08:50:00
9:20 AM,48.2,44.6,87,30.06,6.2,WSW,8.1,-,N/A,,Scattered Clouds,250,2012-11-08 09:20:00
9:50 AM,50.0,44.6,82,30.04,6.2,West,9.2,-,N/A,,Scattered Clouds,260,2012-11-08 09:50:00
10:20 AM,50.0,44.6,82,30.06,6.2,West,10.4,-,N/A,,Scattered Clouds,270,2012-11-08 10:20:00
10:50 AM,51.8,44.6,76,30.06,6.2,West,9.2,-,N/A,,Scattered Clouds,280,2012-11-08 10:50:00
11:20 AM,51.8,44.6,76,30.06,6.2,West,9.2,-,N/A,,Mostly Cloudy,280,2012-11-08 11:20:00
11:50 AM,51.8,44.6,76,30.04,6.2,West,8.1,-,N/A,,Scattered Clouds,280,2012-11-08 11:50:00
12:50 PM,51.8,41.0,67,30.04,6.2,WNW,8.1,-,N/A,,Scattered Clouds,300,2012-11-08 12:50:00
1:20 PM,51.8,41.0,67,30.04,6.2,WNW,11.5,-,N/A,,Mostly Cloudy,290,2012-11-08 13:20:00
1:50 PM,51.8,41.0,67,30.04,6.2,WNW,6.9,-,N/A,,Mostly Cloudy,300,2012-11-08 13:50:00
2:20 PM,51.8,41.0,67,30.04,6.2,NW,8.1,-,N/A,,Mostly Cloudy,310,2012-11-08 14:20:00
2:50 PM,51.8,41.0,67,30.04,6.2,WNW,10.4,-,N/A,,Mostly Cloudy,290,2012-11-08 14:50:00
3:20 PM,50.0,41.0,71,30.04,6.2,West,8.1,-,N/A,,Mostly Cloudy,280,2012-11-08 15:20:00
3:50 PM,50.0,39.2,66,30.04,6.2,West,8.1,-,N/A,,Mostly Cloudy,280,2012-11-08 15:50:00
4:20 PM,50.0,41.0,71,30.01,6.2,WNW,5.8,-,N/A,,Mostly Cloudy,290,2012-11-08 16:20:00
4:50 PM,46.4,39.2,76,30.01,6.2,Variable,3.5,-,N/A,,Scattered Clouds,0,2012-11-08 16:50:00
5:20 PM,48.2,41.0,76,30.01,6.2,West,4.6,-,N/A,,Mostly Cloudy,280,2012-11-08 17:20:00
5:50 PM,48.2,41.0,76,30.01,6.2,West,5.8,-,N/A,,Mostly Cloudy,270,2012-11-08 17:50:00
6:20 PM,46.4,39.2,76,30.04,6.2,West,6.9,-,N/A,,Scattered Clouds,280,2012-11-08 18:20:00
6:50 PM,46.4,39.2,76,30.04,6.2,West,4.6,-,N/A,,Scattered Clouds,260,2012-11-08 18:50:00
7:20 PM,46.4,39.2,76,30.04,6.2,WNW,5.8,-,N/A,,Mostly Cloudy,290,2012-11-08 19:20:00
7:50 PM,46.4,39.2,76,30.04,6.2,WNW,4.6,-,N/A,,Mostly Cloudy,290,2012-11-08 19:50:00
8:20 PM,48.2,41.0,76,30.01,6.2,Variable,2.3,-,N/A,,Mostly Cloudy,0,2012-11-08 20:20:00
8:50 PM,46.4,42.8,87,30.01,6.2,Variable,3.5,-,N/A,,Mostly Cloudy,0,2012-11-08 20:50:00
9:20 PM,46.4,41.0,81,30.01,6.2,West,5.8,-,N/A,,Mostly Cloudy,270,2012-11-08 21:20:00
9:50 PM,46.4,39.2,76,30.01,6.2,Variable,3.5,-,N/A,,Mostly Cloudy,0,2012-11-08 21:50:00
10:20 PM,46.4,39.2,76,30.01,6.2,Variable,3.5,-,N/A,,Mostly Cloudy,0,2012-11-08 22:20:00
10:50 PM,46.4,39.2,76,30.01,6.2,SW,6.9,-,N/A,,Mostly Cloudy,230,2012-11-08 22:50:00
11:20 PM,46.4,39.2,76,29.98,6.2,SW,6.9,-,N/A,,Mostly Cloudy,230,2012-11-08 23:20:00
11:50 PM,46.4,39.2,76,29.98,6.2,WSW,5.8,-,N/A,,Mostly Cloudy,240,2012-11-08 23:50:00